Location: Newport
(44.6370°N, 124.0520°W)
Time: 16:47:38
(UTC-07:00)

ISS - Pass Details

Date: 09 October 2017
Orbit: 401 x 408 km, 51.6° (Epoch: 20 October)

Event Time Altitude Azimuth Distance (km) Brightness Sun altitude
Rises 20:38:11 0° 301° (WNW) 2,329 1.3 -21.5°
Reaches altitude 10° 20:40:16 10° 303° (WNW) 1,468 0.0 -21.9°
Enters shadow 20:42:46 47° 320° (NW) 548 -2.9 -22.3°
